| time (UTC) | temp F | wind direction | speed MPH | gust MPH | rain 1hr in | rain 24hr in | rain mn in | humidity % | barometer mb |
| 20260904205428 | 54 | 0.0 | 0.0 | 0.04 | 0.22 | 0.20 | 94 | 1016.3 | |
| 20260904204428 | 54 | 0.0 | 0.0 | 0.03 | 0.21 | 0.20 | 96 | 1016.3 | |
| 20260904203428 | 54 | 0.0 | 0.0 | 0.04 | 0.21 | 0.19 | 96 | 1016.4 | |
| 20260904202428 | 55 | 0 | 0.0 | 0.0 | 0.05 | 0.20 | 0.19 | 98 | 1016.3 |
| 20260904201428 | 54 | 0.0 | 0.0 | 0.06 | 0.19 | 0.18 | 96 | 1016.2 | |
| 20260904200428 | 55 | 0.0 | 0.0 | 0.07 | 0.18 | 0.17 | 99 | 1016.1 | |
| 20260904195449 | 54 | 0.0 | 0.0 | 0.07 | 0.18 | 0.16 | 96 | 1016.2 | |
| 20260904194429 | 54 | 0.0 | 0.0 | 0.08 | 0.18 | 0.16 | 98 | 1016.1 | |
| 20260904193429 | 54 | 0.0 | 0.0 | 0.07 | 0.17 | 0.15 | 96 | 1016.2 | |
| 20260904192449 | 54 | 0.0 | 0.0 | 0.06 | 0.16 | 0.14 | 95 | 1016.5 | |
| 20260904191429 | 54 | 0.0 | 0.0 | 0.03 | 0.13 | 0.12 | 94 | 1016.5 | |
| 20260904190429 | 55 | 0.0 | 0.0 | 0.02 | 0.12 | 0.10 | 93 | 1016.5 | |
| 20260904185430 | 55 | 0.0 | 0.0 | 0.01 | 0.11 | 0.10 | 94 | 1016.5 | |
| 20260904184430 | 55 | 0.0 | 0.0 | 0.00 | 0.10 | 0.09 | 94 | 1016.5 | |
| 20260904183430 | 55 | 0.0 | 0.0 | 0.00 | 0.10 | 0.09 | 94 | 1016.5 | |
| 20260904182430 | 54 | 0.0 | 0.0 | 0.00 | 0.10 | 0.09 | 94 | 1016.5 | |
| 20260904181450 | 54 | 0.0 | 0.0 | 0.01 | 0.10 | 0.08 | 93 | 1016.5 | |
| 20260904180431 | 54 | 0.0 | 0.0 | 0.01 | 0.10 | 0.08 | 95 | 1016.6 | |
| 20260904175431 | 54 | 177 | 0.0 | 1.0 | 0.01 | 0.10 | 0.08 | 95 | 1016.6 |
| 20260904174431 | 54 | 0 | 0.0 | 0.0 | 0.01 | 0.10 | 0.08 | 95 | 1016.5 |
| 20260904173431 | 54 | 0.0 | 0.0 | 0.01 | 0.10 | 0.08 | 95 | 1016.3 | |
| 20260904172432 | 54 | 0.0 | 0.0 | 0.00 | 0.10 | 0.08 | 95 | 1016.2 | |
| 20260904171432 | 54 | 0.0 | 0.0 | 0.00 | 0.09 | 0.08 | 95 | 1016.0 | |
| 20260904170431 | 53 | 0.0 | 0.0 | 0.00 | 0.09 | 0.08 | 94 | 1016.2 | |
| 20260904165433 | 53 | 0 | 0.0 | 0.0 | 0.00 | 0.09 | 0.08 | 95 | 1016.0 |
| 20260904164432 | 53 | 0.0 | 0.0 | 0.00 | 0.09 | 0.08 | 96 | 1016.0 | |
| 20260904163417 | 53 | 0 | 0.0 | 0.0 | 0.00 | 0.09 | 0.08 | 96 | 1015.9 |
| 20260904162438 | 53 | 0.0 | 0.0 | 0.00 | 0.09 | 0.08 | 98 | 1015.9 | |
| 20260904161417 | 52 | 0.0 | 0.0 | 0.00 | 0.09 | 0.08 | 99 | 1015.8 | |
| 20260904160418 | 52 | 257 | 0.0 | 1.0 | 0.00 | 0.09 | 0.08 | 99 | 1015.9 |
| 20260904155417 | 51 | 91 | 0.0 | 0.0 | 0.00 | 0.09 | 0.08 | 99 | 1015.8 |
| 20260904154417 | 51 | 64 | 1.0 | 2.0 | 0.00 | 0.09 | 0.08 | 99 | 1015.8 |
| 20260904153437 | 51 | 34 | 2.0 | 3.0 | 0.00 | 0.09 | 0.08 | 99 | 1015.8 |
| 20260904152417 | 51 | 0 | 0.0 | 0.0 | 0.00 | 0.09 | 0.08 | 99 | 1015.7 |
| 20260904151419 | 50 | 110 | 1.0 | 1.0 | 0.00 | 0.09 | 0.08 | 99 | 1015.7 |
| 20260904150417 | 50 | 127 | 1.0 | 2.0 | 0.00 | 0.09 | 0.08 | 99 | 1015.7 |
| 20260904145418 | 50 | 210 | 1.0 | 2.0 | 0.00 | 0.09 | 0.08 | 99 | 1015.4 |
| 20260904144418 | 50 | 56 | 1.0 | 2.0 | 0.00 | 0.09 | 0.08 | 99 | 1015.2 |
| 20260904143418 | 50 | 162 | 1.0 | 2.0 | 0.00 | 0.09 | 0.08 | 99 | 1015.3 |
| 20260904142438 | 49 | 20 | 2.0 | 3.0 | 0.00 | 0.09 | 0.08 | 99 | 1015.3 |
| 20260904141419 | 49 | 198 | 1.0 | 2.0 | 0.00 | 0.09 | 0.08 | 99 | 1015.1 |
| 20260904140419 | 49 | 183 | 1.0 | 2.0 | 0.00 | 0.09 | 0.08 | 99 | 1014.8 |
| 20260904135419 | 49 | 38 | 1.0 | 2.0 | 0.00 | 0.09 | 0.08 | 99 | 1014.9 |
| 20260904134419 | 49 | 359 | 1.0 | 2.0 | 0.00 | 0.09 | 0.08 | 99 | 1015.0 |
| 20260904133420 | 48 | 200 | 1.0 | 1.0 | 0.00 | 0.09 | 0.08 | 99 | 1014.7 |
| 20260904132419 | 48 | 204 | 1.0 | 1.0 | 0.00 | 0.09 | 0.08 | 99 | 1014.6 |
| 20260904131420 | 48 | 206 | 1.0 | 1.0 | 0.00 | 0.09 | 0.08 | 99 | 1014.4 |
| 20260904130420 | 48 | 227 | 1.0 | 2.0 | 0.00 | 0.09 | 0.08 | 99 | 1014.3 |
| 20260904125420 | 49 | 202 | 1.0 | 1.0 | 0.00 | 0.09 | 0.08 | 99 | 1014.4 |
| 20260904124417 | 48 | 202 | 1.0 | 1.0 | 0.00 | 0.09 | 0.08 | 99 | 1014.3 |
| 20260904123418 | 48 | 202 | 1.0 | 1.0 | 0.00 | 0.09 | 0.08 | 99 | 1014.4 |
| 20260904122418 | 48 | 203 | 1.0 | 1.0 | 0.00 | 0.09 | 0.08 | 99 | 1014.4 |
| 20260904121418 | 48 | 205 | 1.0 | 1.0 | 0.00 | 0.09 | 0.08 | 99 | 1014.3 |
| 20260904120418 | 48 | 209 | 1.0 | 1.0 | 0.00 | 0.09 | 0.08 | 99 | 1014.3 |
| 20260904115418 | 49 | 221 | 1.0 | 2.0 | 0.00 | 0.09 | 0.08 | 99 | 1014.3 |
| 20260904114418 | 49 | 7 | 2.0 | 3.0 | 0.00 | 0.09 | 0.08 | 99 | 1013.9 |
| 20260904113419 | 49 | 205 | 1.0 | 1.0 | 0.00 | 0.09 | 0.08 | 99 | 1014.0 |
| 20260904112419 | 49 | 215 | 1.0 | 1.0 | 0.00 | 0.09 | 0.08 | 99 | 1014.1 |
| 20260904111419 | 49 | 346 | 2.0 | 2.0 | 0.00 | 0.10 | 0.08 | 99 | 1014.0 |
| 20260904110419 | 49 | 228 | 1.0 | 2.0 | 0.00 | 0.10 | 0.08 | 99 | 1013.9 |
| 20260904105419 | 49 | 351 | 2.0 | 2.0 | 0.00 | 0.10 | 0.08 | 99 | 1013.8 |
| 20260904104420 | 49 | 11 | 2.0 | 2.0 | 0.00 | 0.10 | 0.08 | 99 | 1014.0 |
| 20260904103420 | 49 | 213 | 1.0 | 1.0 | 0.00 | 0.12 | 0.08 | 99 | 1013.9 |
| 20260904102420 | 49 | 251 | 1.0 | 1.0 | 0.01 | 0.12 | 0.08 | 99 | 1013.8 |
| 20260904101420 | 49 | 27 | 1.0 | 2.0 | 0.02 | 0.13 | 0.08 | 99 | 1013.6 |
| 20260904100421 | 49 | 251 | 1.0 | 1.0 | 0.03 | 0.13 | 0.08 | 99 | 1013.4 |
| 20260904095421 | 49 | 200 | 1.0 | 1.0 | 0.03 | 0.13 | 0.08 | 99 | 1013.4 |
| 20260904094421 | 49 | 170 | 1.0 | 1.0 | 0.03 | 0.13 | 0.08 | 99 | 1013.2 |
| 20260904093421 | 49 | 145 | 1.0 | 1.0 | 0.03 | 0.14 | 0.08 | 99 | 1013.0 |
| 20260904092422 | 49 | 190 | 1.0 | 1.0 | 0.02 | 0.15 | 0.07 | 99 | 1013.2 |
| 20260904091422 | 49 | 177 | 1.0 | 2.0 | 0.01 | 0.14 | 0.05 | 99 | 1013.1 |
| 20260904090422 | 49 | 258 | 2.0 | 2.0 | 0.00 | 0.13 | 0.05 | 99 | 1013.1 |
| 20260904085422 | 49 | 231 | 1.0 | 2.0 | 0.00 | 0.13 | 0.05 | 99 | 1013.0 |
| 20260904084423 | 49 | 204 | 1.0 | 2.0 | 0.00 | 0.14 | 0.05 | 99 | 1012.8 |
| 20260904083423 | 49 | 218 | 1.0 | 1.0 | 0.00 | 0.15 | 0.05 | 99 | 1013.0 |
| 20260904082423 | 49 | 233 | 1.0 | 1.0 | 0.00 | 0.15 | 0.05 | 99 | 1013.1 |
| 20260904081423 | 49 | 217 | 2.0 | 2.0 | 0.01 | 0.15 | 0.05 | 99 | 1013.0 |
| 20260904080423 | 49 | 205 | 1.0 | 1.0 | 0.01 | 0.15 | 0.05 | 99 | 1013.0 |
| 20260904075443 | 49 | 93 | 1.0 | 2.0 | 0.01 | 0.15 | 0.05 | 99 | 1013.1 |
| 20260904074423 | 49 | 135 | 1.0 | 1.0 | 0.03 | 0.15 | 0.05 | 99 | 1013.1 |
| 20260904073424 | 49 | 199 | 1.0 | 1.0 | 0.04 | 0.17 | 0.05 | 99 | 1013.1 |
| 20260904072424 | 49 | 197 | 1.0 | 1.0 | 0.04 | 0.18 | 0.05 | 99 | 1013.2 |
| 20260904071424 | 49 | 222 | 1.0 | 1.0 | 0.04 | 0.17 | 0.04 | 99 | 1013.2 |
| 20260904070424 | 49 | 329 | 1.0 | 2.0 | 0.04 | 0.17 | 0.04 | 98 | 1013.1 |
| 20260904065444 | 49 | 203 | 1.0 | 2.0 | 0.03 | 0.17 | 0.03 | 98 | 1013.2 |
| 20260904064425 | 49 | 322 | 2.0 | 2.0 | 0.03 | 0.16 | 0.02 | 96 | 1013.1 |
| 20260904063425 | 49 | 343 | 2.0 | 3.0 | 0.01 | 0.14 | 0.01 | 96 | 1013.3 |
| 20260904062425 | 50 | 337 | 1.0 | 2.0 | 0.01 | 0.14 | 0.00 | 95 | 1013.2 |
| 20260904061425 | 50 | 352 | 2.0 | 2.0 | 0.01 | 0.14 | 0.00 | 94 | 1013.5 |
| 20260904060426 | 50 | 337 | 1.0 | 2.0 | 0.01 | 0.13 | 0.00 | 94 | 1013.3 |
| 20260904055426 | 50 | 342 | 2.0 | 3.0 | 0.01 | 0.13 | 0.13 | 93 | 1013.0 |
| 20260904054426 | 51 | 273 | 2.0 | 3.0 | 0.00 | 0.13 | 0.13 | 95 | 1013.1 |
| 20260904053426 | 51 | 277 | 2.0 | 3.0 | 0.00 | 0.13 | 0.13 | 93 | 1012.7 |
| 20260904052426 | 51 | 238 | 2.0 | 3.0 | 0.01 | 0.13 | 0.13 | 91 | 1013.0 |
| 20260904051507 | 51 | 238 | 2.0 | 4.0 | 0.01 | 0.13 | 0.13 | 90 | 1012.7 |
| 20260904050427 | 51 | 270 | 1.0 | 3.0 | 0.01 | 0.13 | 0.13 | 89 | 1012.8 |
| 20260904045427 | 51 | 323 | 2.0 | 3.0 | 0.01 | 0.13 | 0.13 | 88 | 1013.1 |
| 20260904044447 | 51 | 319 | 2.0 | 4.0 | 0.01 | 0.13 | 0.13 | 88 | 1013.2 |
| 20260904043428 | 52 | 351 | 1.0 | 2.0 | 0.00 | 0.12 | 0.12 | 85 | 1013.0 |
| 20260904042428 | 52 | 54 | 2.0 | 3.0 | 0.00 | 0.12 | 0.12 | 83 | 1013.1 |
| 20260904041428 | 53 | 327 | 2.0 | 3.0 | 0.00 | 0.12 | 0.12 | 81 | 1012.8 |
| 20260904040428 | 53 | 346 | 3.0 | 3.0 | 0.00 | 0.12 | 0.12 | 81 | 1012.7 |
| 20260904035428 | 54 | 317 | 2.0 | 3.0 | 0.00 | 0.12 | 0.12 | 80 | 1012.6 |
| 20260904034428 | 54 | 344 | 3.0 | 4.0 | 0.00 | 0.12 | 0.12 | 79 | 1012.2 |
| 20260904033429 | 55 | 352 | 2.0 | 3.0 | 0.00 | 0.12 | 0.12 | 79 | 1012.0 |
| 20260904032449 | 56 | 354 | 2.0 | 3.0 | 0.00 | 0.12 | 0.12 | 78 | 1011.5 |
| 20260904031416 | 57 | 342 | 1.0 | 2.0 | 0.00 | 0.12 | 0.12 | 78 | 1011.2 |
| 20260904030417 | 58 | 239 | 1.0 | 2.0 | 0.00 | 0.12 | 0.12 | 78 | 1010.9 |
| 20260904025417 | 59 | 334 | 2.0 | 3.0 | 0.00 | 0.12 | 0.12 | 78 | 1010.4 |
| 20260904024417 | 62 | 322 | 3.0 | 4.0 | 0.00 | 0.12 | 0.12 | 80 | 1009.9 |
| 20260904023417 | 63 | 283 | 3.0 | 4.0 | 0.00 | 0.12 | 0.12 | 80 | 1009.3 |
| 20260904022417 | 64 | 268 | 1.0 | 2.0 | 0.00 | 0.12 | 0.12 | 80 | 1009.0 |
| 20260904021417 | 65 | 47 | 0.0 | 0.0 | 0.00 | 0.12 | 0.12 | 79 | 1008.7 |
| 20260904020417 | 66 | 0.0 | 0.0 | 0.00 | 0.12 | 0.12 | 78 | 1008.5 | |
| 20260904015417 | 67 | 299 | 1.0 | 2.0 | 0.00 | 0.12 | 0.12 | 75 | 1008.4 |
| 20260904014418 | 68 | 312 | 1.0 | 1.0 | 0.00 | 0.12 | 0.12 | 75 | 1008.2 |
| 20260904013431 | 69 | 0 | 0.0 | 0.0 | 0.00 | 0.12 | 0.12 | 75 | 1008.1 |
| 20260904012431 | 69 | 315 | 1.0 | 1.0 | 0.00 | 0.12 | 0.12 | 75 | 1008.0 |
| 20260904011418 | 70 | 0 | 0.0 | 0.0 | 0.00 | 0.12 | 0.12 | 74 | 1008.0 |
| 20260904010438 | 70 | 0.0 | 0.0 | 0.00 | 0.12 | 0.12 | 73 | 1008.0 | |
| 20260904005438 | 71 | 287 | 0.0 | 1.0 | 0.00 | 0.12 | 0.12 | 72 | 1008.0 |
| 20260904004419 | 71 | 0 | 0.0 | 0.0 | 0.00 | 0.12 | 0.12 | 72 | 1008.0 |
| 20260904003419 | 72 | 292 | 0.0 | 1.0 | 0.00 | 0.12 | 0.12 | 70 | 1008.0 |
| 20260904002419 | 72 | 310 | 0.0 | 1.0 | 0.00 | 0.12 | 0.12 | 70 | 1008.1 |
| 20260904001419 | 73 | 0.0 | 0.0 | 0.00 | 0.12 | 0.12 | 69 | 1008.1 | |
| 20260904000420 | 73 | 280 | 2.0 | 2.0 | 0.00 | 0.12 | 0.12 | 68 | 1008.0 |
| 20260903235419 | 74 | 0.0 | 0.0 | 0.00 | 0.12 | 0.12 | 68 | 1008.2 | |
| 20260903234419 | 74 | 0.0 | 0.0 | 0.00 | 0.12 | 0.12 | 68 | 1008.1 | |
| 20260903233440 | 74 | 0.0 | 0.0 | 0.00 | 0.12 | 0.12 | 67 | 1008.4 | |
| 20260903232420 | 75 | 265 | 2.0 | 3.0 | 0.00 | 0.12 | 0.12 | 67 | 1008.5 |
| 20260903231440 | 75 | 0.0 | 0.0 | 0.00 | 0.12 | 0.12 | 67 | 1008.7 | |
| 20260903230421 | 76 | 274 | 1.0 | 1.0 | 0.00 | 0.12 | 0.12 | 65 | 1008.7 |
| 20260903225421 | 75 | 277 | 1.0 | 2.0 | 0.00 | 0.12 | 0.12 | 64 | 1008.7 |
| 20260903224421 | 75 | 269 | 3.0 | 4.0 | 0.00 | 0.12 | 0.12 | 60 | 1008.8 |
| 20260903223422 | 76 | 262 | 4.0 | 5.0 | 0.00 | 0.12 | 0.12 | 59 | 1008.8 |
| 20260903222501 | 76 | 277 | 1.0 | 2.0 | 0.00 | 0.12 | 0.12 | 58 | 1009.0 |
| 20260903221421 | 77 | 0 | 0.0 | 0.0 | 0.00 | 0.12 | 0.12 | 58 | 1008.8 |
| 20260903220421 | 77 | 292 | 1.0 | 2.0 | 0.00 | 0.12 | 0.12 | 58 | 1009.0 |
| 20260903215422 | 77 | 0 | 0.0 | 0.0 | 0.00 | 0.12 | 0.12 | 54 | 1009.2 |
| 20260903214422 | 77 | 276 | 2.0 | 3.0 | 0.00 | 0.12 | 0.12 | 55 | 1009.3 |
| 20260903213422 | 77 | 260 | 1.0 | 3.0 | 0.00 | 0.12 | 0.12 | 54 | 1009.5 |
| 20260903212422 | 77 | 279 | 0.0 | 1.0 | 0.00 | 0.12 | 0.12 | 55 | 1009.6 |
| 20260903211422 | 77 | 63 | 1.0 | 2.0 | 0.00 | 0.12 | 0.12 | 54 | 1009.7 |
| 20260903210422 | 77 | 73 | 2.0 | 4.0 | 0.00 | 0.12 | 0.12 | 55 | 1009.8 |